Location: Ehrke Reservoir
(40.0279°N, 99.6641°W)
Time: 10:48:04
(UTC+00:00)

Atlas Centaur 2 - Pass Details

Date: 20 January 2020
Orbit: 459 x 1310 km, 30.4° (Epoch: 18 February)

Event Time Altitude Azimuth Distance (km) Brightness Sun altitude
Rises 02:09:11 0° 227° (SW) 3,144 5.9 -27.9°
Reaches altitude 10° 02:11:47 10° 213° (SSW) 2,363 4.9 -28.4°
Enters shadow 02:15:20 24° 175° (S) 1,756 3.8 -29.1°
